Location: Buffign�court
(47.8126°N, 6.0176°E)
Time: 19:23:43
(UTC+00:00)

SL-8 R/B - Pass Details

Date: 16 June 2021
Orbit: 656 x 667 km, 48.4° (Epoch: 31 July)

Event Time Altitude Azimuth Distance (km) Brightness Sun altitude
Rises 21:31:40 0° 285° (WNW) 2,993 7.8 -13.5°
Reaches altitude 10° 21:34:02 10° 282° (WNW) 2,077 6.8 -13.7°
Maximum altitude 21:38:46 61° 203° (SSW) 745 3.7 -14.0°
Enters shadow 21:41:58 20° 127° (SE) 1,512 5.0 -14.3°
